Home   Weather   Bradford   Past weeks

Flag for United Kingdom Past Weather in Bradford, England, United Kingdom — Yesterday and Last 2 Weeks

48 °F

Partly sunny.

Feels Like: 48 °F
Forecast: 44 / 55 °F
Wind: 2 mph from North

Location: Leeds And Bradford

Current Time: Oct 25, 2016 at 1:00:49 PM

Latest Report: Oct 25, 2016 at 12:20 PM

Visibility: 5 mi

Pressure: 30.24 "Hg

Humidity: 94%

Dew Point: 46 °F

Location of BradfordLocation

Past Weather in Bradford — Graph


Bradford Temperature Yesterday

Maximum temperature yesterday: 50 °F (at 1:50 PM)
Minimum temperature yesterday: 41 °F (at 12:20 AM)
Average temperature yesterday: 45 °F

High & Low Weather Summary for the Past Weeks

High57 °F (Oct 16, 3:20 PM)100% (Oct 10, 9:20 PM)30.36 "Hg (Oct 10, 9:20 PM)
Low41 °F (Oct 23, 10:50 PM)67% (Oct 16, 4:20 PM)29.65 "Hg (Oct 15, 3:50 AM)
Average47 °F93%30.03 "Hg
* Reported Oct 10 11:20 AM — Oct 25 11:50 AM, Bradford, Weather by CustomWeather, © 2016

Note: Actual official high and low records may vary slightly from our data, if they occured in-between our weather recording intervals... More about our weather records


Bradford Weather History for the Previous 24 Hours

Scroll right to see more
Time TempWeatherWind HumidityBarometerVisibility
11:50 AM
Tue, Oct 25
48 °FPartly sunny.2 mph94%30.21 "Hg6 mi
11:20 AM46 °FSleet. Partly sunny.3 mph100%30.21 "Hg5 mi
10:50 AM46 °FSleet. Partly sunny.2 mph100%30.21 "Hg5 mi
10:20 AM46 °FSleet. Fog.5 mph100%30.21 "HgN/A
9:50 AM45 °FSleet. Fog.3 mph100%30.21 "Hg6 mi
9:20 AM43 °FQuite cool.2 mph100%30.18 "Hg2 mi
8:50 AM41 °FFog.2 mph100%30.18 "Hg0 mi
8:20 AM41 °FFog.3 mphN/A30.18 "Hg0 mi
7:50 AM41 °FFog.2 mph100%30.18 "Hg1 mi
7:20 AM41 °FSleet. Fog.5 mph100%30.15 "Hg1 mi
6:50 AM41 °FFog.3 mph100%30.15 "Hg2 mi
6:20 AM41 °FClear.3 mph100%30.15 "Hg5 mi
5:50 AM41 °FClear.3 mph100%30.15 "Hg6 mi
5:20 AM43 °FClear.6 mph100%30.12 "Hg10 mi
4:50 AM43 °FClear.5 mph100%30.12 "Hg10 mi
4:20 AM43 °FClear.2 mph100%30.12 "Hg10 mi
3:50 AM43 °FClear.3 mph100%30.12 "Hg10 mi
3:20 AM43 °FClear.3 mph100%30.12 "Hg10 mi
2:50 AM45 °FClear.2 mph100%30.12 "Hg10 mi
2:20 AM45 °FClear.3 mph100%30.12 "Hg10 mi
1:50 AM45 °FClear.3 mph100%30.12 "Hg10 mi
1:20 AM45 °FClear.2 mph100%30.09 "Hg10 mi
12:50 AM45 °FClear.3 mph100%30.09 "Hg10 mi
12:20 AM45 °FClear.3 mph93%30.09 "Hg10 mi
11:50 PM
Mon, Oct 24
43 °FPassing clouds.3 mph100%30.09 "HgN/A
11:20 PM45 °FPassing clouds.5 mph93%30.09 "HgN/A
10:50 PM45 °FPassing clouds.3 mph93%30.09 "HgN/A
10:20 PM45 °FClear.3 mph93%30.07 "Hg10 mi
9:50 PM45 °FClear.3 mph100%30.07 "Hg10 mi
9:20 PM46 °FPassing clouds.5 mph93%30.07 "HgN/A
8:50 PM46 °FPassing clouds.6 mph93%30.07 "HgN/A
8:20 PM46 °FPassing clouds.6 mph93%30.04 "HgN/A
7:50 PM46 °FPassing clouds.6 mph93%30.04 "HgN/A
7:20 PM46 °FPassing clouds.6 mph93%30.04 "HgN/A
6:50 PM46 °FPassing clouds.5 mph93%30.04 "HgN/A
6:20 PM46 °FPassing clouds.5 mph93%30.01 "HgN/A
5:50 PM46 °FPassing clouds.3 mph93%30.01 "HgN/A
5:20 PM48 °FPassing clouds.3 mph87%30.01 "HgN/A
4:50 PM48 °FPassing clouds.5 mph87%30.01 "HgN/A
4:20 PM48 °FPassing clouds.5 mph87%30.01 "HgN/A
3:50 PM48 °FScattered clouds.6 mph87%30.01 "HgN/A
3:20 PM50 °FScattered clouds.6 mph88%29.98 "HgN/A
2:50 PM50 °FScattered clouds.6 mph88%29.98 "HgN/A
2:20 PM50 °FScattered clouds.7 mph88%29.98 "HgN/A
1:50 PM50 °FPassing clouds.5 mph88%29.98 "HgN/A
1:20 PM48 °FPassing clouds.7 mph94%29.98 "HgN/A
Weather by CustomWeather, © 2016

See weather overviewHow to use our weather pages